Southend, Saskatchewan

11:42 PM CST on April 24, 2017 (GMT -0600)
Southend

Weather History for CWJH - December, 2012

Change the Weather History Date:

Friday, December 21, 2012

  Actual Average Record
Temperature  
Mean Temperature -10 °F -  
Max Temperature 1 °F - - ()
Min Temperature -20 °F - - ()
Degree Days  
Heating Degree Days 74    
Moisture  
Dew Point -10 °F    
Average Humidity 81    
Maximum Humidity 86    
Minimum Humidity 65    
Precipitation  
Precipitation 0.00 in - - ()
Sea Level Pressure  
Sea Level Pressure 30.31 in    
Wind  
Wind Speed 1 mph ()    
Max Wind Speed 5 mph    
Max Gust Speed -    
T = Trace of Precipitation, MM = Missing Value Source: Averaged Metar Reports

Daily Weather History Graph

Daily Weather History Graph

Search for Another Location

Airport or City:

Trip Planner

Search our weather history database for the weather conditions in past years. The results will help you decide how hot, cold, wet, or windy it might be!

Date:

Astronomy

Dec. 21, 2012 Rise Set
Actual Time 9:25 AM CST 4:17 PM CST
Civil Twilight 8:37 AM CST 5:05 PM CST
Nautical Twilight 7:47 AM CST 5:55 PM CST
Astronomical Twilight 7:01 AM CST 6:41 PM CST
Moon 12:51 PM CST (12/21) 2:24 AM CST (12/21)
Length of Visible Light 8h 28m
Length of Day
6h 52m
Waxing Gibbous, 65% of the Moon is Illuminated
Dec 21
Waxing Gibbous
Dec 28
Full
Jan 4
Last Quarter
Jan 11
New
Jan 18
First Quarter

Hourly Weather History & Observations

Time (CST) Temp. Windchill Dew Point Humidity Pressure Visibility Wind Dir Wind Speed Gust Speed Precip Events Conditions
12:00 AM -21 °F - -26 °F 65% 30.35 in - WSW 1.2 mph - -  
12:00 AM -20.6 °F - -26.0 °F 76% 30.35 in - WSW 1.2 mph - N/A   Unknown
1:00 AM -20.9 °F - -26.5 °F 75% 30.34 in - WSW 1.2 mph - N/A   Unknown
2:00 AM -19.7 °F - -24.9 °F 77% 30.33 in - WSW 1.2 mph - N/A   Unknown
3:00 AM -17.1 °F - -22.0 °F 79% 30.32 in - WSW 1.2 mph - N/A   Unknown
4:00 AM -13.9 °F - -18.6 °F 80% 30.33 in - WSW 1.2 mph - N/A   Unknown
5:00 AM -11.4 °F - -15.9 °F 80% 30.32 in - Calm Calm - N/A   Unknown
6:00 AM -11 °F - -15 °F 72% 30.31 in - East 1.2 mph - -  
6:00 AM -10.8 °F - -15.2 °F 81% 30.31 in - East 1.2 mph - N/A   Unknown
7:00 AM -8.7 °F - -12.8 °F 82% 30.32 in - Calm Calm - N/A   Unknown
8:00 AM -7.4 °F - -11.4 °F 83% 30.31 in - Calm Calm - N/A   Unknown
9:00 AM -7.1 °F - -11.0 °F 83% 30.31 in - Calm Calm - N/A   Unknown
10:00 AM -5.4 °F - -9.2 °F 84% 30.31 in - Calm Calm - N/A   Unknown
11:00 AM -2.2 °F - -5.6 °F 85% 30.30 in - NNE 2.3 mph - N/A   Unknown
12:00 PM -0 °F - -4 °F 76% 30.28 in - NNE 2.3 mph - -  
12:00 PM -0.4 °F - -3.8 °F 85% 30.28 in - NNE 2.3 mph - N/A   Unknown
1:00 PM 0.7 °F -7.1 °F -2.6 °F 86% 30.27 in - NNE 3.5 mph - N/A   Unknown
2:00 PM 1.6 °F -8.0 °F -1.8 °F 86% 30.26 in - NNE 4.6 mph - N/A   Unknown
3:00 PM 1.2 °F -8.5 °F -2.4 °F 85% 30.27 in - NNE 4.6 mph - N/A   Unknown
4:00 PM 1.0 °F -6.7 °F -2.6 °F 85% 30.28 in - NE 3.5 mph - N/A   Unknown
5:00 PM 1.2 °F - -2.6 °F 84% 30.30 in - NNW 2.3 mph - N/A   Unknown
6:00 PM 0 °F - -3 °F 78% 30.31 in - NNW 2.3 mph - -  
6:00 PM 0.5 °F - -3.5 °F 83% 30.31 in - NNW 2.3 mph - N/A   Unknown
7:00 PM -0.4 °F -8.3 °F -4.4 °F 83% 30.31 in - NNW 3.5 mph - N/A   Unknown
8:00 PM -0.6 °F - -4.4 °F 84% 30.32 in - NNW 2.3 mph - N/A   Unknown
9:00 PM -0.4 °F - -4.4 °F 83% 30.32 in - NNW 2.3 mph - N/A   Unknown
10:00 PM -0.2 °F - -4.2 °F 83% 30.34 in - NNW 2.3 mph - N/A   Unknown
11:00 PM -0.8 °F - -4.9 °F 83% 30.34 in - NNW 2.3 mph - N/A   Unknown